Russell, KS

8:54 PM CST on December 11, 2017 (GMT -0600)
Russell Municipal

Weather History for KRSL - March, 2013

Change the Weather History Date:

Saturday, March 2, 2013

  Actual Average Record
Temperature  
Mean Temperature 24 °F -  
Max Temperature 37 °F 50 °F 80 °F (1974)
Min Temperature 12 °F 28 °F -4 °F (1980)
Degree Days  
Heating Degree Days 40    
Moisture  
Dew Point 20 °F    
Average Humidity 88    
Maximum Humidity 95    
Minimum Humidity 76    
Precipitation  
Precipitation 0.00 in - - ()
Sea Level Pressure  
Sea Level Pressure 30.29 in    
Wind  
Wind Speed 6 mph (SSW)    
Max Wind Speed 14 mph    
Max Gust Speed -    
Visibility 5 miles    
Events Fog , Snow    
Averages and records for this station are not official NWS values.
T = Trace of Precipitation, MM = Missing Value Source: NWS Daily Summary

Daily Weather History Graph

Daily Weather History Graph

Search for Another Location

Airport or City:

Trip Planner

Search our weather history database for the weather conditions in past years. The results will help you decide how hot, cold, wet, or windy it might be!

Date:

Astronomy

Mar. 02, 2013 Rise Set
Actual Time 7:05 AM CST 6:29 PM CST
Civil Twilight 6:39 AM CST 6:56 PM CST
Nautical Twilight 6:08 AM CST 7:26 PM CST
Astronomical Twilight 5:37 AM CST 7:57 PM CST
Moon No Moon Rise 9:38 AM CST (3/2)
Length of Visible Light 12h 17m
Length of Day
11h 23m
Waning Gibbous, 74% of the Moon is Illuminated
Mar 2
Waning Gibbous
Mar 4
Last Quarter
Mar 11
New
Mar 19
First Quarter
Mar 27
Full

Hourly Weather History & Observations

Time (CST) Temp. Windchill Dew Point Humidity Pressure Visibility Wind Dir Wind Speed Gust Speed Precip Events Conditions
12:53 AM 19.0 °F 11.1 °F 17.1 °F 92% 30.40 in 7.0 mi WNW 5.8 mph - N/A   Clear
1:20 AM 17.6 °F 9.3 °F 14.0 °F 86% 30.33 in 1.8 mi West 5.8 mph - N/A   Clear
1:32 AM 17.6 °F 10.7 °F 15.8 °F 93% 30.33 in 3.0 mi WNW 4.6 mph - N/A   Clear
1:53 AM 18.0 °F 11.1 °F 16.0 °F 92% 30.41 in 5.0 mi NW 4.6 mph - N/A   Clear
2:53 AM 19.9 °F - 16.0 °F 85% 30.39 in 5.0 mi Calm Calm - N/A   Clear
3:13 AM 19.4 °F 14.3 °F 15.8 °F 86% 30.32 in 2.0 mi SSW 3.5 mph - N/A   Partly Cloudy
3:20 AM 15.8 °F 6.1 °F 12.2 °F 86% 30.32 in 1.5 mi SSW 6.9 mph - 0.00 in Snow Light Snow
3:24 AM 14.0 °F 2.9 °F 10.4 °F 86% 30.32 in 3.0 mi SSW 8.1 mph - 0.00 in Snow Light Snow
3:53 AM 14.0 °F 6.5 °F 10.9 °F 88% 30.40 in 5.0 mi West 4.6 mph - 0.00 in   Clear
4:40 AM 14.0 °F 6.5 °F 10.4 °F 86% 30.32 in 3.0 mi SW 4.6 mph - N/A   Scattered Clouds
4:49 AM 12.2 °F 6.1 °F 10.4 °F 92% 30.31 in 4.0 mi SW 3.5 mph - N/A   Mostly Cloudy
4:53 AM 12.9 °F - 10.9 °F 92% 30.40 in 4.0 mi Calm Calm - N/A   Mostly Cloudy
4:57 AM 12.2 °F 6.1 °F 10.4 °F 92% 30.32 in 1.5 mi WSW 3.5 mph - N/A   Overcast
5:06 AM 12.2 °F - 10.4 °F 92% 30.31 in 0.2 mi Calm Calm - N/A Fog Light Freezing Fog
5:33 AM 12.2 °F 6.1 °F 10.4 °F 92% 30.30 in 0.2 mi SW 3.5 mph - N/A Fog Light Freezing Fog
5:53 AM 12.0 °F - 10.9 °F 95% 30.39 in 0.2 mi Calm Calm - N/A Fog Light Freezing Fog
6:53 AM 12.0 °F 4.1 °F 10.0 °F 92% 30.38 in 0.2 mi SSW 4.6 mph - N/A Fog Light Freezing Fog
7:53 AM 14.0 °F 5.1 °F 10.9 °F 88% 30.37 in 0.2 mi South 5.8 mph - N/A Fog Light Freezing Fog
8:53 AM 19.9 °F 12.1 °F 17.1 °F 89% 30.37 in 2.0 mi South 5.8 mph - N/A   Overcast
9:13 AM 21.2 °F 13.6 °F 19.4 °F 93% 30.28 in 3.0 mi SSW 5.8 mph - N/A   Overcast
9:53 AM 24.1 °F 17.0 °F 21.9 °F 91% 30.35 in 4.0 mi South 5.8 mph - N/A   Partly Cloudy
10:53 AM 30.0 °F 22.4 °F 26.1 °F 85% 30.35 in 10.0 mi South 8.1 mph - N/A   Clear
11:53 AM 30.9 °F 22.2 °F 27.0 °F 85% 30.33 in 9.0 mi SSE 10.4 mph - N/A   Clear
12:53 PM 34.0 °F 25.0 °F 28.0 °F 79% 30.29 in 9.0 mi South 12.7 mph - N/A   Clear
1:53 PM 35.1 °F 27.4 °F 28.9 °F 78% 30.27 in 10.0 mi South 10.4 mph - N/A   Clear
2:53 PM 36.0 °F 27.5 °F 28.9 °F 76% 30.24 in 10.0 mi South 12.7 mph - N/A   Clear
3:53 PM 37.0 °F 29.3 °F 30.0 °F 76% 30.22 in 10.0 mi South 11.5 mph - N/A   Clear
4:53 PM 37.0 °F 28.5 °F 30.9 °F 79% 30.21 in 10.0 mi South 13.8 mph - N/A   Clear
5:53 PM 36.0 °F 27.5 °F 30.9 °F 82% 30.20 in 8.0 mi South 12.7 mph - N/A   Clear
6:53 PM 33.8 °F 26.4 °F 30.2 °F 87% 30.13 in 8.0 mi South 9.2 mph - N/A   Clear
7:53 PM 33.1 °F 24.9 °F 30.0 °F 89% 30.19 in 7.0 mi South 10.4 mph - N/A   Clear
8:53 PM 30.9 °F 22.8 °F 28.9 °F 92% 30.16 in 6.0 mi South 9.2 mph - N/A   Clear
9:53 PM 32.0 °F 24.2 °F 28.9 °F 88% 30.14 in 7.0 mi SSW 9.2 mph - N/A   Clear
10:53 PM 30.9 °F 22.2 °F 28.0 °F 89% 30.13 in 7.0 mi SSW 10.4 mph - N/A   Clear
11:53 PM 30.9 °F 22.2 °F 28.9 °F 92% 30.11 in 6.0 mi SSW 10.4 mph - N/A   Mostly Cloudy